This is the latest recevied weather packets stored in our database for station/object IW2MUC-12. If no packets are shown the sender has not sent any weather packets the latest 10 day(s).
| Time | Temp. | Humidity | Pressure | Rain* | Wind** | Luminosity | Snow |
|---|---|---|---|---|---|---|---|
| 1778167120 | 25° C | 36% | 985 hPa | - | - | - | - |
| 1778165912 | 25° C | 35% | 985 hPa | - | - | - | - |
| 1778165308 | 26.11° C | 38% | 986 hPa | - | - | - | - |
| 1778164704 | 26.67° C | 37% | 986 hPa | - | - | - | - |
| 1778164100 | 27.22° C | 36% | 986 hPa | - | - | - | - |
| 1778163496 | 27.78° C | 37% | 986 hPa | - | - | - | - |
| 1778162892 | 27.78° C | 38% | 986 hPa | - | - | - | - |
| 1778162288 | 27.78° C | 38% | 986 hPa | - | - | - | - |
| 1778161684 | 27.78° C | 39% | 986 hPa | - | - | - | - |
| 1778161080 | 27.22° C | 40% | 986 hPa | - | - | - | - |
| 1778160476 | 27.22° C | 41% | 987 hPa | - | - | - | - |
| 1778159872 | 27.22° C | 41% | 987 hPa | - | - | - | - |
| 1778159268 | 27.78° C | 40% | 987 hPa | - | - | - | - |
| 1778158060 | 28.89° C | 40% | 987 hPa | - | - | - | - |
| 1778157456 | 29.44° C | 40% | 986 hPa | - | - | - | - |
| 1778156852 | 30.56° C | 42% | 987 hPa | - | - | - | - |
| 1778156248 | 31.67° C | 43% | 986 hPa | - | - | - | - |
| 1778155644 | 32.78° C | 43% | 986 hPa | - | - | - | - |
| 1778155040 | 33.89° C | 45% | 986 hPa | - | - | - | - |
| 1778154436 | 33.89° C | 53% | 986 hPa | - | - | - | - |
| 1778153832 | 32.78° C | 53% | 986 hPa | - | - | - | - |
| 1778153228 | 32.22° C | 54% | 986 hPa | - | - | - | - |
| 1778152624 | 31.11° C | 55% | 986 hPa | - | - | - | - |
| 1778152020 | 30° C | 56% | 986 hPa | - | - | - | - |
| 1778151416 | 28.89° C | 56% | 986 hPa | - | - | - | - |
* Rain since midnight (hover to see other rain measurements)
** Current wind speed in m/s (hover to see current wind gust speed)